• In Hungary
  • List of Countries
  • For 7 days
  • Water Temperature
  • Satellite Maps
  • Weather Map
  • News
  • Weather Widgets
  • user-avatar
    Login

    Hourly Weather San Pedro La Laguna

    Today, 12 December, Tuesday

    Time Temperature Precipitation Wind Pressure Humidity
    00:00 +9°C° 0 mm 1 mps 594 mmHg 67%
    01:00 +9°C° 0 mm 1 mps 594 mmHg 66%
    02:00 +9°C° 0 mm 1 mps 593 mmHg 66%
    03:00 +9°C° 0 mm 1 mps 593 mmHg 65%
    04:00 +9°C° 0 mm 1 mps 593 mmHg 65%
    05:00 +9°C° 0 mm 1 mps 593 mmHg 64%
    06:00 +9°C° 0 mm 1 mps 594 mmHg 63%
    07:00 +11°C° 0 mm 1 mps 595 mmHg 58%
    08:00 +13°C° 0 mm 1 mps 596 mmHg 54%
    09:00 +16°C° 0 mm 1 mps 597 mmHg 50%
    10:00 +18°C° 0 mm 1 mps 597 mmHg 48%
    11:00 +19°C° 0 mm 2 mps 598 mmHg 46%
    12:00 +20°C° 0 mm 2 mps 598 mmHg 44%
    13:00 +20°C° 0 mm 2 mps 597 mmHg 48%
    14:00 +19°C° 0 mm 2 mps 597 mmHg 52%
    15:00 +19°C° 0 mm 2 mps 596 mmHg 55%
    16:00 +16°C° 0 mm 2 mps 595 mmHg 66%
    17:00 +14°C° 0 mm 2 mps 594 mmHg 76%
    18:00 +12°C° 0 mm 1 mps 594 mmHg 86%
    19:00 +11°C° 0 mm 1 mps 594 mmHg 84%
    20:00 +10°C° 0 mm 2 mps 594 mmHg 81%
    21:00 +10°C° 0 mm 2 mps 594 mmHg 79%
    22:00 +10°C° 0 mm 2 mps 594 mmHg 77%
    23:00 +10°C° 0 mm 1 mps 594 mmHg 76%

    Tomorrow, 13 December, Wednesday

    Time Temperature Precipitation Wind Pressure Humidity
    00:00 +10°C° 0 mm 1 mps 594 mmHg 75%
    01:00 +10°C° 0 mm 1 mps 594 mmHg 75%
    02:00 +10°C° 0 mm 1 mps 593 mmHg 75%
    03:00 +10°C° 0 mm 1 mps 593 mmHg 76%
    04:00 +10°C° 0 mm 1 mps 593 mmHg 76%
    05:00 +9°C° 0 mm 1 mps 593 mmHg 76%
    06:00 +9°C° 0 mm 1 mps 593 mmHg 76%
    07:00 +11°C° 0 mm 1 mps 594 mmHg 70%
    08:00 +14°C° 0 mm 1 mps 596 mmHg 63%
    09:00 +16°C° 0 mm 1 mps 597 mmHg 56%
    10:00 +18°C° 0 mm 1 mps 598 mmHg 52%
    11:00 +20°C° 0 mm 1 mps 598 mmHg 48%
    12:00 +21°C° 0 mm 2 mps 598 mmHg 43%
    13:00 +20°C° 0 mm 2 mps 598 mmHg 48%
    14:00 +19°C° 0 mm 2 mps 597 mmHg 52%
    15:00 +18°C° 0 mm 2 mps 596 mmHg 56%
    16:00 +16°C° 0 mm 2 mps 595 mmHg 66%
    17:00 +14°C° 0 mm 1 mps 594 mmHg 76%
    18:00 +12°C° 0 mm 1 mps 593 mmHg 86%
    19:00 +12°C° 0 mm 1 mps 594 mmHg 85%
    20:00 +11°C° 0 mm 1 mps 594 mmHg 84%
    21:00 +11°C° 0 mm 1 mps 594 mmHg 83%
    22:00 +11°C° 0 mm 1 mps 594 mmHg 81%
    23:00 +11°C° 0 mm 1 mps 594 mmHg 80%

    Day after tomorrow, 14 December, Thursday

    Time Temperature Precipitation Wind Pressure Humidity
    00:00 +11°C° 0 mm 1 mps 594 mmHg 79%
    01:00 +11°C° 0 mm 1 mps 593 mmHg 80%
    02:00 +11°C° 0 mm 1 mps 593 mmHg 80%
    03:00 +10°C° 0 mm 1 mps 593 mmHg 81%
    04:00 +10°C° 0 mm 1 mps 592 mmHg 81%
    05:00 +10°C° 0 mm 1 mps 592 mmHg 82%
    06:00 +10°C° 0 mm 1 mps 592 mmHg 82%
    07:00 +13°C° 0 mm 1 mps 594 mmHg 73%
    08:00 +15°C° 0 mm 1 mps 595 mmHg 65%
    09:00 +19°C° 0 mm 1 mps 597 mmHg 56%
    10:00 +20°C° 0 mm 1 mps 597 mmHg 52%
    11:00 +21°C° 0 mm 1 mps 597 mmHg 49%
    12:00 +23°C° 0 mm 2 mps 597 mmHg 46%
    13:00 +21°C° 0 mm 2 mps 596 mmHg 49%
    14:00 +20°C° 0 mm 2 mps 596 mmHg 52%
    15:00 +20°C° 0 mm 2 mps 595 mmHg 56%
    16:00 +18°C° 0 mm 2 mps 594 mmHg 66%
    17:00 +16°C° 0 mm 1 mps 594 mmHg 76%
    18:00 +14°C° 0 mm 1 mps 593 mmHg 87%
    19:00 +13°C° 0 mm 1 mps 593 mmHg 88%
    20:00 +13°C° 0 mm 1 mps 593 mmHg 88%
    21:00 +11°C° 0 mm 0 mps 594 mmHg 89%
    22:00 +12°C° 0 mm 1 mps 594 mmHg 88%
    23:00 +12°C° 0 mm 1 mps 593 mmHg 86%

    15 December, Friday

    Time Temperature Precipitation Wind Pressure Humidity
    00:00 +12°C° 0 mm 1 mps 593 mmHg 85%
    01:00 +12°C° 0 mm 1 mps 593 mmHg 84%
    02:00 +12°C° 0 mm 1 mps 593 mmHg 83%
    03:00 +11°C° 0 mm 1 mps 592 mmHg 82%
    04:00 +11°C° 0 mm 1 mps 592 mmHg 83%
    05:00 +11°C° 0 mm 1 mps 592 mmHg 83%
    06:00 +11°C° 0 mm 1 mps 593 mmHg 83%
    07:00 +14°C° 0 mm 1 mps 594 mmHg 76%
    08:00 +16°C° 0 mm 1 mps 595 mmHg 68%
    09:00 +19°C° 0 mm 1 mps 597 mmHg 61%
    10:00 +20°C° 0 mm 1 mps 597 mmHg 57%
    11:00 +20°C° 0 mm 2 mps 597 mmHg 53%
    12:00 +21°C° 0 mm 2 mps 597 mmHg 49%
    13:00 +21°C° 0 mm 2 mps 596 mmHg 52%
    14:00 +20°C° 0 mm 2 mps 595 mmHg 54%
    15:00 +19°C° 0 mm 2 mps 594 mmHg 57%
    16:00 +18°C° 0 mm 2 mps 594 mmHg 65%
    17:00 +16°C° 0 mm 1 mps 593 mmHg 74%
    18:00 +14°C° 0 mm 1 mps 593 mmHg 82%
    19:00 +13°C° 0 mm 1 mps 593 mmHg 82%
    20:00 +13°C° 0 mm 1 mps 593 mmHg 83%
    21:00 +13°C° 0 mm 1 mps 594 mmHg 83%
    22:00 +12°C° 0 mm 1 mps 594 mmHg 83%
    23:00 +12°C° 0 mm 1 mps 594 mmHg 83%

    16 December, Saturday

    Time Temperature Precipitation Wind Pressure Humidity
    00:00 +12°C° 0 mm 1 mps 594 mmHg 82%
    01:00 +12°C° 0 mm 1 mps 593 mmHg 82%
    02:00 +12°C° 0 mm 1 mps 593 mmHg 82%
    03:00 +12°C° 0 mm 1 mps 593 mmHg 82%
    04:00 +12°C° 0 mm 1 mps 593 mmHg 81%
    05:00 +12°C° 0 mm 1 mps 593 mmHg 81%
    06:00 +12°C° 0 mm 1 mps 593 mmHg 80%
    07:00 +14°C° 0 mm 1 mps 594 mmHg 73%
    08:00 +16°C° 0 mm 1 mps 596 mmHg 65%
    09:00 +19°C° 0 mm 1 mps 597 mmHg 58%
    10:00 +19°C° 0 mm 2 mps 597 mmHg 56%
    11:00 +20°C° 0 mm 2 mps 597 mmHg 54%
    12:00 +20°C° 0 mm 2 mps 597 mmHg 52%
    13:00 +20°C° 0.1 mm 2 mps 596 mmHg 56%
    14:00 +19°C° 0.1 mm 2 mps 595 mmHg 59%
    15:00 +18°C° 0.1 mm 2 mps 594 mmHg 63%
    16:00 +18°C° 0 mm 1 mps 594 mmHg 70%
    17:00 +15°C° 0 mm 1 mps 593 mmHg 77%
    18:00 +14°C° 0 mm 1 mps 593 mmHg 85%
    19:00 +13°C° 0 mm 1 mps 593 mmHg 85%
    20:00 +13°C° 0 mm 1 mps 594 mmHg 84%
    21:00 +13°C° 0 mm 1 mps 594 mmHg 84%
    22:00 +13°C° 0 mm 1 mps 594 mmHg 83%
    23:00 +12°C° 0 mm 1 mps 594 mmHg 83%

    17 December, Sunday

    Time Temperature Precipitation Wind Pressure Humidity
    00:00 +12°C° 0 mm 1 mps 593 mmHg 82%
    01:00 +12°C° 0 mm 1 mps 593 mmHg 81%
    02:00 +12°C° 0 mm 1 mps 593 mmHg 81%
    03:00 +12°C° 0 mm 1 mps 592 mmHg 80%
    04:00 +12°C° 0 mm 1 mps 592 mmHg 80%
    05:00 +12°C° 0 mm 1 mps 593 mmHg 79%
    06:00 +11°C° 0 mm 1 mps 593 mmHg 79%
    07:00 +14°C° 0 mm 1 mps 594 mmHg 72%
    08:00 +16°C° 0 mm 1 mps 595 mmHg 65%
    09:00 +19°C° 0 mm 1 mps 597 mmHg 58%
    10:00 +20°C° 0 mm 1 mps 597 mmHg 53%
    11:00 +21°C° 0 mm 2 mps 597 mmHg 48%
    12:00 +23°C° 0 mm 2 mps 597 mmHg 43%
    13:00 +21°C° 0 mm 2 mps 596 mmHg 44%
    14:00 +21°C° 0 mm 2 mps 595 mmHg 45%
    15:00 +21°C° 0 mm 2 mps 594 mmHg 47%
    16:00 +18°C° 0 mm 2 mps 594 mmHg 55%
    17:00 +16°C° 0 mm 1 mps 593 mmHg 64%
    18:00 +14°C° 0 mm 1 mps 592 mmHg 73%
    19:00 +13°C° 0 mm 1 mps 593 mmHg 70%
    20:00 +13°C° 0 mm 1 mps 593 mmHg 67%
    21:00 +12°C° 0 mm 1 mps 593 mmHg 64%
    22:00 +12°C° 0 mm 1 mps 593 mmHg 64%
    23:00 +12°C° 0 mm 1 mps 593 mmHg 63%
    Show more